Location: ??????
(55.7914°N, 38.8534°E)
Time: 07:16:12
(UTC+00:00)

Daily predictions for brighter satellites

Satellite Brightness Start Highest point End
(mag) Time Altitude Azimuth Time Altitude Azimuth Time Altitude Azimuth
Cosmos 2315 Rocket 4.4 19:03:04 10° SSW 19:09:24 71° WNW 19:15:44 10° N
Cosmos 2322 Rocket 4.3 19:06:52 10° NNW 19:11:19 23° NNE 19:15:46 10° ENE
Cosmos 2058 Rocket 4.3 19:13:06 10° N 19:17:01 30° ENE 19:20:56 10° SE
Cosmos 1833 Rocket 3.8 19:12:56 10° SSE 19:17:31 27° ESE 19:22:09 10° NE
Cosmos 2360 4.4 19:12:18 10° NNW 19:18:04 78° NE 19:23:49 10° SE
Helios 1A Rocket 4.1 19:15:10 10° SSW 19:19:00 39° W 19:22:52 10° NNW
SL-8 R/B 4.5 19:16:45 10° WSW 19:21:04 34° S 19:25:24 10° ESE
Cosmos 2074 Rocket 4.2 19:16:06 10° NNW 19:22:25 78° W 19:28:40 10° S
ARIANE 5 R/B 2.9 19:18:27 10° S 19:22:55 67° WSW 19:27:22 10° NNW
SPOT 5 3.9 19:20:54 10° SSW 19:25:00 36° W 19:29:03 10° NNW
Cosmos 2344 4.2 19:17:37 10° NW 19:25:56 87° SW 19:37:25 10° SE
Meteor 2-1 Rocket 4.3 19:20:59 10° NNW 19:26:31 74° ENE 19:32:02 10° SSE
ATLAS 2AS CENTAUR R/B 3.6 19:20:43 10° NW 19:27:14 39° WSW 19:33:20 10° S
Cosmos 1025 Rocket 4.4 19:25:39 10° SW 19:29:42 40° WNW 19:33:47 10° N
Lacrosse 5 rocket 3.5 19:28:27 10° W 19:30:26 14° SW 19:32:28 10° SSW
GP-B 4.0 19:26:40 10° NNE 19:30:48 37° E 19:34:55 10° SSE
USA 234 3.4 19:25:47 10° SE 19:32:16 61° SSW 19:38:46 10° WNW
Cosmos 1867 4.0 19:28:46 10° NW 19:34:14 62° NE 19:39:40 10° ESE
SAR-Lupe-4 4.2 19:31:06 10° NNE 19:34:31 40° E 19:37:54 10° S
Cosmos 1452 Rocket 3.7 19:29:57 10° S 19:35:04 54° ESE 19:40:13 10° NE
Lacrosse 4 Rocket 3.9 19:31:48 10° W 19:35:19 27° NNW 19:38:49 10° NNE
RESURS DK-1 2.6 19:31:35 10° NW 19:35:40 62° WSW 19:39:45 10° SSE
Cosmos 2082 Rocket 3.8 19:34:25 10° SE 19:38:12 18° E 19:41:59 10° ENE
Cosmos 1408 4.1 19:38:10 10° SE 19:40:47 20° E 19:43:24 10° NE
Cosmos 1607 4.0 19:36:56 10° SW 19:43:11 86° SE 19:49:23 10° NE
Nadezhda 1 Rocket 4.0 19:39:15 10° S 19:45:18 72° E 19:51:22 10° NNE
Cosmos 2154 Rocket 4.2 19:39:30 10° NNW 19:45:44 75° W 19:51:56 10° S
Cosmos 1110 Rocket 4.4 19:43:39 10° S 19:48:40 47° ESE 19:53:45 10° NE
Lacrosse 5 3.4 19:45:11 10° W 19:49:06 22° SW 19:53:01 10° S
SAR-Lupe-1 4.1 19:45:53 10° NNE 19:49:28 64° ESE 19:53:00 10° S
Cosmos 2360 Rocket 4.2 19:47:11 10° NNW 19:51:52 25° NNE 19:56:34 10° E
Cosmos 1536 Rocket 4.1 19:51:25 10° SSW 19:55:41 58° WNW 20:00:00 10° N
Cosmos 2228 3.8 19:54:49 10° NNW 19:58:53 45° W 20:02:55 10° SSW
Cosmos 1606 Rocket 3.8 19:54:35 10° NNW 19:58:54 66° W 20:03:09 10° S
Terra 3.4 19:56:26 10° SSW 20:00:33 29° W 20:04:42 10° NNW
USA 276 3.3 20:02:02 10° SW 20:04:22 21° SSE 20:06:42 10° ESE
SJ 16-02 3.4 20:01:49 10° N 20:05:20 22° NE 20:08:50 10° E
FALCON 9 DEB 3.1 20:04:27 10° WSW 20:07:38 52° S 20:10:51 10° ESE
Cosmos 1869 4.0 20:07:34 10° N 20:11:16 42° ENE 20:14:42 12° SE
COSMOS 2406 3.8 20:07:46 10° S 20:13:02 40° ESE 20:18:23 10° NE
Cosmos 1825 3.6 20:10:17 11° SE 20:13:04 24° E 20:16:08 10° NE
Cosmos 2369 3.8 20:08:22 10° NW 20:14:07 77° WSW 20:19:27 12° SSE
Cosmos 2084 Rocket 3.3 20:12:13 10° WNW 20:16:03 61° SW 20:19:41 12° SE
SL-16 R/B 3.2 20:11:06 10° NNW 20:16:34 44° NE 20:22:00 10° ESE
Cosmos 2084 3.5 20:14:44 10° WSW 20:18:35 72° NNW 20:22:31 10° NE
SL-8 Rocket 4.1 20:12:19 10° N 20:18:38 84° E 20:24:24 12° SSE
ERS-2 4.1 20:16:55 10° NE 20:19:18 17° E 20:21:38 10° SE
Cosmos 968 Rocket 3.6 20:17:48 10° NNW 20:22:59 74° WSW 20:27:38 13° SSE
Cosmos 1726 Rocket 4.2 20:19:54 10° NNW 20:24:05 49° W 20:28:04 11° SSW
Cosmos 1980 Rocket 2.3 20:19:36 10° NW 20:25:19 72° WSW 20:30:28 13° SSE
Cosmos 1697 Rocket 3.5 20:22:54 10° NW 20:28:10 41° WSW 20:32:57 12° S
Cosmos 2218 Rocket 4.1 20:21:56 10° N 20:28:24 84° E 20:34:15 13° SSE
Meteor 1-11 4.3 20:23:31 11° S 20:28:50 69° E 20:34:24 10° NNE
Spot 4 4.0 20:26:58 13° S 20:31:13 71° WSW 20:36:02 10° NNW
Cosmos 2219 Rocket 4.4 20:28:23 10° NNW 20:32:59 25° NNE 20:37:36 10° E
Cosmos 2366 rocket 4.1 20:27:25 10° NNW 20:33:46 89° ENE 20:39:31 13° S
Cosmos 2341 Rocket 4.2 20:28:34 10° NNW 20:34:54 69° W 20:40:43 12° S
Cosmos 1812 Rocket 4.2 20:32:01 10° N 20:36:24 49° ENE 20:40:21 12° SE
ALOS 2 2.6 20:34:29 14° SSE 20:38:15 88° WSW 20:42:41 10° NNW
USA 267 3.2 20:31:48 10° ENE 20:38:19 67° SSE 20:44:51 10° SW
Cosmos 1328 4.5 20:37:19 10° SSW 20:41:16 53° WNW 20:45:13 10° N
Cosmos 1892 2.6 20:38:49 14° S 20:41:57 77° E 20:45:44 10° NNE
Cosmos 192 4.4 20:37:38 11° SSW 20:42:13 62° ESE 20:47:04 10° NNE
ADEOS Rocket 3.6 20:36:20 12° SSE 20:43:00 89° WSW 20:50:48 10° NNW
ASTEX 1 4.1 20:40:12 10° N 20:45:05 53° WNW 20:49:57 10° SSW
In-Cosmos 22 Rocket 4.3 20:40:12 13° S 20:45:08 64° E 20:50:34 10° NNE
Cosmos 1486 Rocket 4.0 20:44:51 10° NNW 20:50:06 88° WSW 20:54:49 13° SSE
Cosmos 1633 3.7 20:50:59 14° SSE 20:53:24 31° E 20:56:31 10° NNE
Cosmos 2333 Rocket 3.9 20:48:47 10° NNW 20:54:00 34° NE 20:59:12 10° E
Cosmos 1602 Rocket 4.2 20:51:37 14° SSE 20:54:57 42° E 20:59:02 10° NNE
Cosmos 2058 Rocket 3.9 20:50:59 10° NNW 20:55:09 42° W 20:58:53 12° SSW
Cosmos 2322 Rocket 2.8 20:50:59 10° NNW 20:56:35 56° NE 21:02:11 10° SE
Cosmos 2278 3.8 20:53:33 10° NW 20:59:14 67° WSW 21:04:14 14° SSE
Cosmos 1833 Rocket 2.9 20:55:21 10° SW 21:00:59 75° NW 21:06:39 10° NNE
Cosmos 1892 Rocket 4.3 20:59:37 10° SSW 21:03:55 49° WNW 21:08:12 10° N
H-2A R/B 3.5 21:00:58 10° NNE 21:05:12 85° ESE 21:08:47 14° SSW
GP-B 4.4 21:04:04 10° NNW 21:08:04 34° WNW 21:12:04 10° SW
Cosmos 807 4.5 21:04:24 10° NNW 21:08:05 69° W 21:10:19 18° S
Aureole 1 Rocket 4.4 21:03:56 10° NNW 21:10:26 79° WSW 21:17:54 12° SSE
Cosmos 1992 Rocket 4.4 21:06:33 15° S 21:10:44 48° ESE 21:15:47 10° NE
ATLAS 5 CENTAUR R/B 3.0 21:09:15 14° SSE 21:11:02 18° ESE 21:13:56 10° ENE
Cosmos 1354 Rocket 4.2 21:07:53 10° NNW 21:13:15 77° ENE 21:18:30 10° SSE
Cosmos 2181 Rocket 4.1 21:07:58 12° SSW 21:13:47 77° WNW 21:20:03 10° N
Cosmos 1408 3.5 21:12:01 10° SW 21:15:15 39° WNW 21:18:32 10° N
Cosmos-2242 3.0 21:11:50 10° NNW 21:16:08 86° E 21:19:34 15° SSE
USA 234 4.4 21:11:53 14° S 21:16:12 26° SW 21:21:31 10° WNW
Cosmos 1867 4.2 21:12:36 10° NW 21:17:43 41° WSW 21:21:54 15° S
Cosmos 1626 Rocket 3.5 21:16:57 15° SSW 21:20:34 84° WNW 21:24:56 10° N
Cosmos 2082 Rocket 2.2 21:15:47 10° SSW 21:21:26 79° ESE 21:27:10 10° NE
Cosmos 1503 Rocket 4.1 21:21:28 10° NNW 21:26:50 76° WSW 21:31:32 13° SSE
Cosmos 2237 4.3 21:25:03 10° NW 21:30:51 84° NE 21:36:35 10° SE
Cosmos 1821 Rocket 4.1 21:24:40 10° NNW 21:30:59 74° W 21:36:20 14° S
Cosmos 1825 Rocket 4.2 21:29:21 14° SSE 21:32:43 44° E 21:36:52 10° NNE
Okean 1-7 Rocket 4.0 21:28:48 12° SSW 21:32:46 59° WNW 21:37:14 10° N
Cosmos 1302 Rocket 4.3 21:29:40 10° SW 21:34:51 66° WNW 21:40:03 10° NNE
Meteor 2-20 4.5 21:31:00 14° S 21:36:19 82° E 21:42:27 10° NNE
Cosmos 2360 Rocket 2.5 21:31:12 10° NNW 21:36:55 68° NE 21:42:35 10° SE
Cosmos 972 Rocket 4.5 21:32:18 10° NNW 21:37:13 59° ENE 21:42:27 10° SE
USA 276 2.9 21:36:55 10° WSW 21:39:31 26° S 21:42:07 10° SE
Cosmos 2058 3.5 21:38:13 15° SSE 21:41:30 48° E 21:45:34 10° NNE
COSMOS 2428 4.3 21:36:34 10° NNW 21:41:51 36° NE 21:47:06 10° ESE
FALCON 9 DEB 3.6 21:40:36 10° W 21:43:36 34° SSW 21:46:37 10° SE
Cosmos 1777 Rocket 4.1 21:38:15 10° NNW 21:43:37 87° ENE 21:48:54 10° SSE
SJ 16-02 1.3 21:39:58 10° NNW 21:44:27 80° WSW 21:48:23 13° SSE
Geosat 4.0 21:42:19 10° SSE 21:47:21 81° SW 21:52:26 10° NW
Cosmos 1825 3.2 21:44:54 11° SW 21:48:14 39° WNW 21:51:48 10° N
Nadezhda 3 Rocket 4.0 21:45:47 14° S 21:51:10 88° E 21:57:22 10° NNE
ERS-2 2.4 21:49:26 10° N 21:53:00 60° WNW 21:56:00 14° SSW
SL-19 R/B 4.2 21:53:56 15° SSE 21:56:55 79° WSW 22:01:04 10° NNW
COSMOS 2406 3.9 21:51:35 10° SW 21:57:15 55° NW 22:02:55 10° NNE
Cosmos 1606 3.1 21:53:50 10° NNW 21:57:34 50° W 22:00:26 16° SSW
Nimbus 7 Rocket 4.4 21:51:52 10° NNE 21:57:48 87° ESE 22:03:09 13° SSW
Meteor 2-2 Rocket 4.4 21:51:55 10° NNW 21:57:54 80° WSW 22:03:24 13° S
PSLV R/B 3.8 21:54:02 10° NNE 21:58:50 85° WNW 22:02:56 14° SSW
SL-16 R/B 2.5 21:55:20 10° NW 22:00:50 52° WSW 22:05:47 13° S
Meteor 2-20 Rocket 4.5 21:57:03 14° S 22:02:27 90° SSE 22:08:37 10° NNE
Cosmos 1758 Rocket 3.9 22:04:00 13° SSW 22:07:42 58° WNW 22:12:04 10° N
Cosmos 1980 Rocket 4.0 22:04:56 10° WNW 22:08:23 17° W 22:11:49 10° SW
Cosmos 2221 2.6 22:08:22 10° NNW 22:12:43 85° ENE 22:16:46 12° SSE
Cosmos 2219 Rocket 2.7 22:12:21 10° NNW 22:18:01 65° NE 22:23:40 10° SE
Thor Agena Rocket 4.4 22:15:12 10° NNE 22:20:12 42° E 22:25:00 10° S
USA 267 3.4 22:15:00 10° E 22:21:33 83° N 22:28:08 10° W
Cosmos 1340 Rocket 2.8 22:20:18 15° S 22:23:31 76° ESE 22:27:30 10° NNE
MOZ.5/SAFIR/RUBIN 5/SL-8 3.8 22:21:00 10° SSE 22:25:46 87° WSW 22:30:33 10° NNW
Cosmos 1633 4.0 22:24:53 10° SW 22:27:54 27° WNW 22:30:56 10° N
CZ-2D R/B 3.4 22:23:52 10° NNE 22:28:33 32° E 22:33:11 10° SSE
Cosmos 2151 4.3 22:26:51 10° SSE 22:30:41 33° E 22:34:34 10° NNE
Meteor 2-3 Rocket 4.4 22:26:47 10° SSE 22:32:09 48° E 22:37:31 10° NNE
SL-16 R/B 3.0 22:29:37 10° SE 22:35:49 66° ENE 22:42:02 10° NNW
Cosmos 2333 Rocket 2.2 22:33:05 10° NW 22:38:53 80° WSW 22:44:39 10° SSE
Resurs 1-4 Rocket 3.1 22:35:19 10° NNE 22:40:21 41° E 22:45:22 10° SSE
Cosmos 2322 Rocket 2.9 22:35:18 10° NW 22:40:30 38° WSW 22:45:30 11° S
Cosmos 1782 2.9 22:38:20 10° N 22:42:22 76° ENE 22:46:20 10° SSE
COSMOS 2487 4.3 22:43:23 10° SSE 22:45:35 18° ESE 22:47:49 10° ENE
ATLAS 5 CENTAUR R/B 1.4 22:50:57 10° SW 22:54:50 87° NW 22:59:24 10° NE
Cosmos 1953 Rocket 4.1 22:52:33 11° SSW 22:56:41 51° WNW 23:01:02 10° N
Cosmos 972 4.5 22:55:04 10° NNW 22:59:56 66° WSW 23:04:58 10° S
Cosmos 1727 Rocket 4.2 22:58:22 10° S 23:04:41 75° E 23:11:00 10° NNE
Cosmos 2082 Rocket 3.7 23:00:57 10° W 23:06:06 33° NW 23:11:15 10° NNE
Cosmos 1763 Rocket 4.4 23:01:47 10° S 23:06:39 42° ESE 23:11:37 10° NE
Cosmos 2333 4.5 23:04:19 10° NW 23:09:55 52° WSW 23:15:29 10° S
Cosmos 990 Rocket 4.0 23:05:50 10° NNW 23:10:56 64° WSW 23:16:01 10° SSE
USA 290 2.2 23:10:40 10° NNW 23:13:55 87° ENE 23:17:09 10° SSE
USA 276 3.6 23:12:40 10° WSW 23:14:36 16° SSW 23:16:31 10° SSE
Cosmos 1933 3.9 23:11:01 10° NNW 23:14:50 43° W 23:18:38 10° SSW
NPP 4.0 23:11:26 10° NNE 23:16:49 62° ESE 23:22:09 10° S
Cosmos 1459 Rocket 4.0 23:12:42 10° NNW 23:18:50 90° W 23:24:54 10° S
SL-4 R/B 3.6 23:16:26 10° S 23:18:57 17° SE 23:21:35 10° ESE
Cosmos 1076 Rocket 3.6 23:14:50 10° SSW 23:19:12 75° WNW 23:23:36 10° N
Cosmos 1833 4.3 23:13:42 10° SSW 23:19:17 73° ESE 23:24:53 10° NE
Cosmos 2100 Rocket 4.1 23:13:35 10° NNW 23:20:01 83° W 23:26:24 10° S
Cosmos 2360 Rocket 3.1 23:15:39 10° NW 23:20:33 30° WSW 23:25:25 10° SSW
COSMOS 2455 3.4 23:15:10 10° NW 23:21:12 64° NE 23:27:11 10° ESE
SJ 16-02 3.4 23:20:06 10° WNW 23:22:15 13° W 23:24:23 10° WSW
ADEOS II 2.8 23:18:12 10° NNE 23:23:19 49° E 23:28:25 10° S
Cosmos 1812 3.0 23:20:53 10° NNW 23:24:38 52° W 23:28:21 10° S
COSMOS 2428 2.7 23:20:51 10° NW 23:26:32 70° WSW 23:32:13 10° SSE
Cosmos 44 3.8 23:23:27 10° SSW 23:27:50 44° SE 23:32:05 10° NE
Cosmos 1725 Rocket 4.3 23:24:15 10° N 23:30:28 73° ENE 23:36:39 10° SSE
NOSS 0 Rocket 4.0 23:26:20 10° NW 23:32:34 89° SW 23:38:45 10° SSE
Cosmos 1328 Rocket 4.4 23:28:45 10° N 23:33:08 53° ENE 23:37:26 10° SSE
Cosmos 1898 Rocket 3.6 23:29:19 10° NNW 23:34:26 61° WSW 23:39:31 10° S
Cosmos 2173 Rocket 4.1 23:29:30 10° NNW 23:35:50 71° W 23:42:10 10° S
Cosmos 2237 Rocket 2.6 23:34:45 10° NNW 23:40:28 72° NE 23:46:08 10° SE
Cosmos 1151 Rocket 3.1 23:38:09 10° NNW 23:42:34 89° W 23:46:58 10° S
SL-16 R/B 4.2 23:42:16 10° W 23:43:40 11° W 23:45:04 10° WSW
MOS 1 Rocket 3.9 23:39:35 10° S 23:44:27 48° W 23:49:36 10° NNW
UNK 4.1 23:41:00 10° S 23:45:33 51° W 23:50:08 10° NNW
Cosmos 2322 4.2 23:40:23 10° NW 23:45:43 43° WSW 23:51:01 10° S
Cosmos 2061 Rocket 4.2 23:39:35 10° N 23:46:05 86° E 23:52:32 10° S
Meteor 1-10 Rocket 4.4 23:40:18 10° NNW 23:46:17 89° ENE 23:52:11 10° SSE
